Time,TemperatureF,DewpointF,PressureIn,WindDirection,WindDirectionDegrees,WindSpeedMPH,WindSpeedGustMPH,Humidity,HourlyPrecipIn,Conditions,Clouds,dailyrainin,SoftwareType,DateUTC
2013-01-30 00:03:00,71.7,68.6,29.86,South,169,9.0,22.0,90,0.00,,SKC,0.00,VWS V14.01,2013-01-30 06:03:00,
2013-01-30 00:08:00,71.7,68.6,29.86,South,189,4.0,22.0,90,0.00,,SKC,0.00,VWS V14.01,2013-01-30 06:08:00,
2013-01-30 00:13:00,71.8,68.7,29.86,SSE,157,9.0,22.0,90,0.00,,SKC,0.00,VWS V14.01,2013-01-30 06:13:00,
2013-01-30 00:18:00,71.9,68.8,29.86,SSE,157,9.0,26.0,90,0.00,,SKC,0.00,VWS V14.01,2013-01-30 06:18:00,
2013-01-30 00:23:00,71.9,69.1,29.86,SSW,201,11.0,26.0,91,0.00,,SKC,0.00,VWS V14.01,2013-01-30 06:23:00,
2013-01-30 00:28:00,71.9,69.1,29.86,South,171,11.0,26.0,91,0.00,,SKC,0.00,VWS V14.01,2013-01-30 06:28:00,
2013-01-30 00:33:00,71.9,69.1,29.86,SSW,193,9.0,15.0,91,0.00,,SKC,0.00,VWS V14.01,2013-01-30 06:33:00,
2013-01-30 00:38:00,72.0,69.2,29.86,SSW,198,11.0,18.0,91,0.00,,SKC,0.00,VWS V14.01,2013-01-30 06:38:00,
2013-01-30 00:43:00,72.0,69.2,29.86,SSE,167,7.0,21.0,91,0.00,,SKC,0.00,VWS V14.01,2013-01-30 06:43:00,
2013-01-30 00:48:00,72.0,69.2,29.86,South,169,13.0,21.0,91,0.00,,SKC,0.00,VWS V14.01,2013-01-30 06:48:00,
2013-01-30 00:53:00,72.0,69.2,29.86,South,171,14.0,21.0,91,0.00,,SKC,0.00,VWS V14.01,2013-01-30 06:53:00,
2013-01-30 00:58:00,71.9,69.1,29.86,SE,134,8.0,21.0,91,0.00,,SKC,0.00,VWS V14.01,2013-01-30 06:58:00,
2013-01-30 01:03:00,71.9,68.8,29.86,SSE,162,8.0,18.0,90,0.00,,SKC,0.00,VWS V14.01,2013-01-30 07:03:00,
2013-01-30 01:08:00,71.8,68.7,29.86,SSE,168,18.0,25.0,90,0.00,,SKC,0.00,VWS V14.01,2013-01-30 07:08:00,
2013-01-30 01:13:00,71.9,68.8,29.86,South,186,9.0,25.0,90,0.00,,SKC,0.00,VWS V14.01,2013-01-30 07:13:00,
2013-01-30 01:18:00,71.9,68.8,29.85,SSW,197,6.0,25.0,90,0.00,,SKC,0.00,VWS V14.01,2013-01-30 07:18:00,
2013-01-30 01:23:00,71.9,68.8,29.85,SE,144,8.0,25.0,90,0.00,,SKC,0.00,VWS V14.01,2013-01-30 07:23:00,
2013-01-30 01:28:00,71.9,68.8,29.85,SE,141,8.0,25.0,90,0.00,,SKC,0.00,VWS V14.01,2013-01-30 07:28:00,
2013-01-30 01:33:00,71.9,68.8,29.84,South,178,6.0,15.0,90,0.00,,SKC,0.00,VWS V14.01,2013-01-30 07:33:00,
2013-01-30 01:38:00,71.9,68.8,29.84,SSE,166,6.0,15.0,90,0.00,,SKC,0.00,VWS V14.01,2013-01-30 07:38:00,
2013-01-30 01:43:00,71.9,68.8,29.84,South,179,5.0,23.0,90,0.00,,SKC,0.00,VWS V14.01,2013-01-30 07:43:00,
2013-01-30 01:48:00,71.9,68.8,29.84,SSE,166,7.0,23.0,90,0.00,,SKC,0.00,VWS V14.01,2013-01-30 07:48:00,
2013-01-30 01:53:00,71.9,68.8,29.84,SSE,162,8.0,25.0,90,0.00,,SKC,0.00,VWS V14.01,2013-01-30 07:53:00,
2013-01-30 01:58:00,72.0,68.9,29.83,South,185,5.0,25.0,90,0.00,,SKC,0.00,VWS V14.01,2013-01-30 07:58:00,
2013-01-30 02:03:00,71.9,68.8,29.83,South,171,8.0,15.0,90,0.00,,SKC,0.00,VWS V14.01,2013-01-30 08:03:00,
2013-01-30 02:08:00,71.9,68.8,29.83,South,171,9.0,19.0,90,0.00,,SKC,0.00,VWS V14.01,2013-01-30 08:08:00,
2013-01-30 02:13:00,72.0,68.9,29.82,South,178,7.0,21.0,90,0.00,,SKC,0.00,VWS V14.01,2013-01-30 08:13:00,
2013-01-30 02:18:00,72.0,68.9,29.83,South,176,6.0,23.0,90,0.00,,SKC,0.00,VWS V14.01,2013-01-30 08:18:00,
2013-01-30 02:23:00,72.0,69.2,29.82,SSE,162,10.0,23.0,91,0.00,,SKC,0.00,VWS V14.01,2013-01-30 08:23:00,
2013-01-30 02:28:00,72.0,69.2,29.82,South,170,23.0,23.0,91,0.00,,SKC,0.00,VWS V14.01,2013-01-30 08:28:00,
2013-01-30 02:33:00,72.0,69.2,29.82,SSW,200,9.0,14.0,91,0.00,,SKC,0.00,VWS V14.01,2013-01-30 08:33:00,
2013-01-30 02:38:00,72.0,69.2,29.82,SSE,156,7.0,25.0,91,0.00,,SKC,0.00,VWS V14.01,2013-01-30 08:38:00,
2013-01-30 02:43:00,72.0,69.2,29.82,SSW,193,14.0,25.0,91,0.00,,SKC,0.00,VWS V14.01,2013-01-30 08:43:00,
2013-01-30 02:48:00,72.0,69.2,29.82,SE,134,15.0,30.0,91,0.00,,SKC,0.00,VWS V14.01,2013-01-30 08:48:00,
2013-01-30 02:53:00,72.0,69.2,29.81,South,173,11.0,30.0,91,0.00,,SKC,0.00,VWS V14.01,2013-01-30 08:53:00,
2013-01-30 02:58:00,72.0,69.2,29.81,South,189,10.0,30.0,91,0.00,,SKC,0.00,VWS V14.01,2013-01-30 08:58:00,
2013-01-30 03:03:00,71.9,69.1,29.81,SSW,197,11.0,19.0,91,0.00,,SKC,0.00,VWS V14.01,2013-01-30 09:03:00,
2013-01-30 03:08:00,71.9,69.1,29.81,SSE,168,4.0,20.0,91,0.00,,SKC,0.00,VWS V14.01,2013-01-30 09:08:00,
2013-01-30 03:13:00,71.8,69.0,29.81,SSE,162,12.0,24.0,91,0.00,,SKC,0.00,VWS V14.01,2013-01-30 09:13:00,
2013-01-30 03:18:00,71.8,69.0,29.80,SSE,157,7.0,24.0,91,0.00,,SKC,0.00,VWS V14.01,2013-01-30 09:18:00,
2013-01-30 03:23:00,71.9,69.1,29.81,SSW,200,8.0,24.0,91,0.00,,SKC,0.00,VWS V14.01,2013-01-30 09:23:00,
2013-01-30 03:28:00,71.9,69.1,29.80,South,183,14.0,24.0,91,0.00,,SKC,0.00,VWS V14.01,2013-01-30 09:28:00,
2013-01-30 03:33:00,71.9,69.1,29.79,South,169,12.0,24.0,91,0.00,,SKC,0.00,VWS V14.01,2013-01-30 09:33:00,
2013-01-30 03:38:00,72.0,69.2,29.78,SSW,197,9.0,24.0,91,0.00,,SKC,0.00,VWS V14.01,2013-01-30 09:38:00,
2013-01-30 03:43:00,72.1,69.3,29.78,South,186,12.0,25.0,91,0.00,,SKC,0.00,VWS V14.01,2013-01-30 09:43:00,
2013-01-30 03:48:00,72.1,69.3,29.77,SSW,194,16.0,25.0,91,0.00,,SKC,0.00,VWS V14.01,2013-01-30 09:48:00,
2013-01-30 03:53:00,72.2,69.4,29.77,South,177,15.0,25.0,91,0.00,,SKC,0.00,VWS V14.01,2013-01-30 09:53:00,
2013-01-30 03:58:00,72.2,69.4,29.77,SSE,165,22.0,25.0,91,0.00,,SKC,0.00,VWS V14.01,2013-01-30 09:58:00,
2013-01-30 04:03:00,72.1,69.3,29.77,South,182,6.0,18.0,91,0.00,,SKC,0.00,VWS V14.01,2013-01-30 10:03:00,
2013-01-30 04:08:00,72.0,69.2,29.77,SSE,161,11.0,19.0,91,0.00,,SKC,0.00,VWS V14.01,2013-01-30 10:08:00,
2013-01-30 04:13:00,71.8,68.7,29.76,South,186,10.0,21.0,90,0.00,,SKC,0.00,VWS V14.01,2013-01-30 10:13:00,
2013-01-30 04:18:00,71.6,68.5,29.76,South,175,16.0,21.0,90,0.00,,SKC,0.00,VWS V14.01,2013-01-30 10:18:00,
2013-01-30 04:23:00,71.6,68.5,29.76,SSE,162,4.0,22.0,90,0.00,,SKC,0.00,VWS V14.01,2013-01-30 10:23:00,
2013-01-30 04:28:00,71.7,68.6,29.76,SSE,167,12.0,24.0,90,0.00,,SKC,0.00,VWS V14.01,2013-01-30 10:28:00,
2013-01-30 04:33:00,71.8,69.0,29.76,SSE,161,13.0,32.0,91,0.00,,SKC,0.00,VWS V14.01,2013-01-30 10:33:00,
2013-01-30 04:38:00,71.9,69.1,29.76,South,171,8.0,32.0,91,0.00,,SKC,0.00,VWS V14.01,2013-01-30 10:38:00,
2013-01-30 04:43:00,71.8,69.0,29.75,SSW,195,7.0,32.0,91,0.00,,SKC,0.00,VWS V14.01,2013-01-30 10:43:00,
2013-01-30 04:48:00,71.7,68.9,29.75,SSE,161,21.0,32.0,91,0.00,,SKC,0.00,VWS V14.01,2013-01-30 10:48:00,
2013-01-30 04:53:00,71.6,68.5,29.75,South,187,8.0,32.0,90,0.00,,SKC,0.00,VWS V14.01,2013-01-30 10:53:00,
2013-01-30 04:57:00,71.5,68.4,29.75,SW,215,8.0,32.0,90,0.00,,SKC,0.00,VWS V14.01,2013-01-30 10:57:00,
2013-01-30 05:02:00,71.5,68.4,29.74,South,180,10.0,24.0,90,0.00,,SKC,0.00,VWS V14.01,2013-01-30 11:02:00,
2013-01-30 05:07:00,71.6,68.5,29.75,SW,219,10.0,26.0,90,0.00,,SKC,0.00,VWS V14.01,2013-01-30 11:07:00,
2013-01-30 05:12:00,71.6,68.5,29.75,SSW,203,18.0,26.0,90,0.00,,SKC,0.00,VWS V14.01,2013-01-30 11:12:00,
2013-01-30 05:17:00,71.7,68.6,29.74,SE,145,11.0,28.0,90,0.00,,SKC,0.00,VWS V14.01,2013-01-30 11:17:00,
2013-01-30 05:22:00,71.8,68.7,29.74,SSE,168,18.0,28.0,90,0.00,,SKC,0.00,VWS V14.01,2013-01-30 11:22:00,
2013-01-30 05:27:00,71.9,69.1,29.75,South,180,12.0,30.0,91,0.00,,SKC,0.00,VWS V14.01,2013-01-30 11:27:00,
2013-01-30 05:32:00,71.9,69.1,29.76,South,178,21.0,22.0,91,0.00,,SKC,0.00,VWS V14.01,2013-01-30 11:32:00,
2013-01-30 05:37:00,71.9,69.1,29.76,SSE,161,9.0,25.0,91,0.00,,SKC,0.00,VWS V14.01,2013-01-30 11:37:00,
2013-01-30 05:42:00,71.8,69.0,29.76,SSW,192,5.0,25.0,91,0.00,,SKC,0.00,VWS V14.01,2013-01-30 11:42:00,
2013-01-30 05:47:00,71.8,69.0,29.75,SSE,153,7.0,25.0,91,0.00,,SKC,0.00,VWS V14.01,2013-01-30 11:47:00,
2013-01-30 05:52:00,71.7,68.9,29.75,SSW,205,9.0,25.0,91,0.00,,SKC,0.00,VWS V14.01,2013-01-30 11:52:00,
2013-01-30 05:57:00,71.7,68.9,29.75,South,191,11.0,25.0,91,0.00,,SKC,0.00,VWS V14.01,2013-01-30 11:57:00,
2013-01-30 06:02:00,71.8,69.0,29.75,SSW,206,10.0,14.0,91,0.00,,SKC,0.00,VWS V14.01,2013-01-30 12:02:00,
2013-01-30 06:07:00,71.6,68.8,29.75,SE,133,2.0,29.0,91,0.00,,SKC,0.00,VWS V14.01,2013-01-30 12:07:00,
2013-01-30 06:12:00,71.4,68.6,29.74,SSW,206,8.0,29.0,91,0.00,,SKC,0.00,VWS V14.01,2013-01-30 12:12:00,
2013-01-30 06:17:00,71.3,68.5,29.74,SSE,157,8.0,29.0,91,0.00,,SKC,0.00,VWS V14.01,2013-01-30 12:17:00,
2013-01-30 06:22:00,71.4,68.6,29.74,South,178,7.0,29.0,91,0.00,,SKC,0.00,VWS V14.01,2013-01-30 12:22:00,
2013-01-30 06:27:00,71.5,68.7,29.74,SSE,157,13.0,29.0,91,0.00,,SKC,0.00,VWS V14.01,2013-01-30 12:27:00,
2013-01-30 06:32:00,71.5,68.7,29.74,SW,227,9.0,13.0,91,0.00,,SKC,0.00,VWS V14.01,2013-01-30 12:32:00,
2013-01-30 06:37:00,71.5,68.7,29.73,SSE,162,13.0,22.0,91,0.00,,SKC,0.00,VWS V14.01,2013-01-30 12:37:00,
2013-01-30 06:42:00,71.5,68.7,29.74,South,186,7.0,22.0,91,0.00,,SKC,0.00,VWS V14.01,2013-01-30 12:42:00,
2013-01-30 06:47:00,71.6,68.8,29.74,SSW,210,10.0,27.0,91,0.00,,SKC,0.00,VWS V14.01,2013-01-30 12:47:00,
2013-01-30 06:52:00,71.6,68.8,29.74,SSE,163,8.0,27.0,91,0.00,,SKC,0.00,VWS V14.01,2013-01-30 12:52:00,
2013-01-30 06:57:00,71.7,68.9,29.74,South,175,9.0,27.0,91,0.00,,SKC,0.00,VWS V14.01,2013-01-30 12:57:00,
2013-01-30 07:02:00,71.8,69.0,29.74,South,177,25.0,25.0,91,0.00,,SKC,0.00,VWS V14.01,2013-01-30 13:02:00,
2013-01-30 07:07:00,71.8,69.0,29.74,SSE,158,22.0,27.0,91,0.00,,SKC,0.00,VWS V14.01,2013-01-30 13:07:00,
2013-01-30 07:12:00,71.8,69.0,29.74,SSE,165,4.0,27.0,91,0.00,,SKC,0.00,VWS V14.01,2013-01-30 13:12:00,
2013-01-30 07:17:00,71.7,68.9,29.74,South,174,14.0,27.0,91,0.00,,SKC,0.00,VWS V14.01,2013-01-30 13:17:00,
2013-01-30 07:22:00,71.7,68.9,29.74,SSE,164,18.0,27.0,91,0.00,,SKC,0.00,VWS V14.01,2013-01-30 13:22:00,
2013-01-30 07:27:00,71.8,69.0,29.74,SSE,151,10.0,27.0,91,0.00,,SKC,0.00,VWS V14.01,2013-01-30 13:27:00,
2013-01-30 07:32:00,71.8,69.0,29.74,SW,230,11.0,23.0,91,0.00,,SKC,0.00,VWS V14.01,2013-01-30 13:32:00,
2013-01-30 07:37:00,71.8,69.0,29.74,SSW,209,10.0,23.0,91,0.00,,SKC,0.00,VWS V14.01,2013-01-30 13:37:00,
2013-01-30 07:42:00,71.8,69.0,29.74,South,182,19.0,24.0,91,0.00,,SKC,0.00,VWS V14.01,2013-01-30 13:42:00,
2013-01-30 07:47:00,71.8,69.0,29.74,SSE,151,12.0,24.0,91,0.00,,SKC,0.00,VWS V14.01,2013-01-30 13:47:00,
2013-01-30 07:52:00,71.9,69.1,29.73,South,178,16.0,24.0,91,0.00,,SKC,0.00,VWS V14.01,2013-01-30 13:52:00,
2013-01-30 07:57:00,72.0,69.2,29.74,SSW,202,21.0,25.0,91,0.00,,SKC,0.00,VWS V14.01,2013-01-30 13:57:00,
2013-01-30 08:02:00,72.1,69.3,29.74,SSW,192,12.0,21.0,91,0.00,,SKC,0.00,VWS V14.01,2013-01-30 14:02:00,
2013-01-30 08:07:00,72.2,69.8,29.74,South,184,18.0,26.0,92,0.00,,SKC,0.00,VWS V14.01,2013-01-30 14:07:00,
2013-01-30 08:12:00,72.2,69.8,29.74,South,191,7.0,26.0,92,0.00,,SKC,0.00,VWS V14.01,2013-01-30 14:12:00,
2013-01-30 08:17:00,72.3,69.8,29.74,South,173,15.0,26.0,92,0.00,,SKC,0.00,VWS V14.01,2013-01-30 14:17:00,
2013-01-30 08:22:00,72.4,69.9,29.74,SW,222,12.0,28.0,92,0.00,,SKC,0.00,VWS V14.01,2013-01-30 14:22:00,
2013-01-30 08:27:00,72.5,70.1,29.74,SW,232,15.0,28.0,92,0.00,,SKC,0.00,VWS V14.01,2013-01-30 14:27:00,
2013-01-30 08:32:00,72.6,70.2,29.74,SSW,198,22.0,27.0,92,0.00,,SKC,0.00,VWS V14.01,2013-01-30 14:32:00,
2013-01-30 08:37:00,72.7,70.2,29.74,SW,217,12.0,27.0,92,0.00,,SKC,0.00,VWS V14.01,2013-01-30 14:37:00,
2013-01-30 08:42:00,72.7,70.2,29.74,South,188,12.0,27.0,92,0.00,,SKC,0.00,VWS V14.01,2013-01-30 14:42:00,
2013-01-30 08:47:00,72.6,70.2,29.74,SSE,157,13.0,30.0,92,0.00,,SKC,0.00,VWS V14.01,2013-01-30 14:47:00,
2013-01-30 08:52:00,72.6,70.2,29.74,South,188,13.0,30.0,92,0.00,,SKC,0.00,VWS V14.01,2013-01-30 14:52:00,
2013-01-30 08:57:00,72.6,70.2,29.74,South,178,5.0,30.0,92,0.00,,SKC,0.00,VWS V14.01,2013-01-30 14:57:00,
2013-01-30 09:02:00,72.5,70.1,29.74,South,182,18.0,20.0,92,0.00,,SKC,0.00,VWS V14.01,2013-01-30 15:02:00,
2013-01-30 09:07:00,72.5,70.1,29.75,South,175,15.0,26.0,92,0.00,,SKC,0.00,VWS V14.01,2013-01-30 15:07:00,
2013-01-30 09:12:00,72.3,69.8,29.75,SSE,158,10.0,26.0,92,0.00,,SKC,0.00,VWS V14.01,2013-01-30 15:12:00,
2013-01-30 09:17:00,72.3,69.8,29.75,SSW,199,6.0,26.0,92,0.00,,SKC,0.00,VWS V14.01,2013-01-30 15:17:00,
2013-01-30 09:22:00,72.3,69.8,29.75,SSW,207,20.0,32.0,92,0.00,,SKC,0.00,VWS V14.01,2013-01-30 15:22:00,
2013-01-30 09:27:00,72.4,69.9,29.74,SSW,210,14.0,32.0,92,0.00,,SKC,0.00,VWS V14.01,2013-01-30 15:27:00,
2013-01-30 09:32:00,72.5,70.1,29.74,SSE,159,7.0,27.0,92,0.00,,SKC,0.00,VWS V14.01,2013-01-30 15:32:00,
2013-01-30 09:37:00,72.6,70.2,29.74,South,190,14.0,27.0,92,0.00,,SKC,0.00,VWS V14.01,2013-01-30 15:37:00,
2013-01-30 09:42:00,72.7,70.2,29.74,SSW,198,6.0,27.0,92,0.00,,SKC,0.00,VWS V14.01,2013-01-30 15:42:00,
2013-01-30 09:47:00,72.7,70.2,29.74,SSW,196,11.0,27.0,92,0.00,,SKC,0.00,VWS V14.01,2013-01-30 15:47:00,
2013-01-30 09:52:00,72.7,70.2,29.75,SSW,192,9.0,27.0,92,0.00,,SKC,0.00,VWS V14.01,2013-01-30 15:52:00,
2013-01-30 09:57:00,72.6,70.2,29.75,SW,219,7.0,27.0,92,0.00,,SKC,0.00,VWS V14.01,2013-01-30 15:57:00,
2013-01-30 10:02:00,72.4,69.9,29.74,South,181,8.0,21.0,92,0.00,,SKC,0.00,VWS V14.01,2013-01-30 16:02:00,
2013-01-30 10:07:00,72.3,69.8,29.74,SSE,162,10.0,26.0,92,0.00,,SKC,0.00,VWS V14.01,2013-01-30 16:07:00,
2013-01-30 10:12:00,72.4,69.9,29.74,South,182,8.0,26.0,92,0.00,,SKC,0.00,VWS V14.01,2013-01-30 16:12:00,
2013-01-30 10:17:00,72.6,70.2,29.74,WSW,238,12.0,28.0,92,0.00,,SKC,0.00,VWS V14.01,2013-01-30 16:17:00,
2013-01-30 10:22:00,72.9,70.4,29.74,SW,219,9.0,28.0,92,0.00,,SKC,0.00,VWS V14.01,2013-01-30 16:22:00,
2013-01-30 10:27:00,73.0,70.5,29.74,SSW,207,8.0,28.0,92,0.00,,SKC,0.00,VWS V14.01,2013-01-30 16:27:00,
2013-01-30 10:32:00,73.1,70.3,29.73,South,173,7.0,22.0,91,0.00,,SKC,0.00,VWS V14.01,2013-01-30 16:32:00,
2013-01-30 10:37:00,73.4,70.6,29.73,SSE,150,9.0,25.0,91,0.00,,SKC,0.00,VWS V14.01,2013-01-30 16:37:00,
2013-01-30 10:42:00,73.6,70.8,29.73,South,179,6.0,29.0,91,0.00,,SKC,0.00,VWS V14.01,2013-01-30 16:42:00,
2013-01-30 10:47:00,73.5,70.7,29.73,South,186,11.0,29.0,91,0.00,,SKC,0.00,VWS V14.01,2013-01-30 16:47:00,
2013-01-30 10:52:00,73.4,70.6,29.72,SW,222,19.0,33.0,91,0.00,,SKC,0.00,VWS V14.01,2013-01-30 16:52:00,
2013-01-30 10:57:00,73.4,70.6,29.72,South,186,11.0,33.0,91,0.00,,SKC,0.00,VWS V14.01,2013-01-30 16:57:00,
2013-01-30 11:02:00,73.6,70.8,29.72,South,181,8.0,24.0,91,0.00,,SKC,0.00,VWS V14.01,2013-01-30 17:02:00,
2013-01-30 11:07:00,73.9,70.8,29.72,SSW,194,23.0,27.0,90,0.00,,SKC,0.00,VWS V14.01,2013-01-30 17:07:00,
2013-01-30 11:12:00,73.8,70.7,29.72,South,190,13.0,27.0,90,0.00,,SKC,0.00,VWS V14.01,2013-01-30 17:12:00,
2013-01-30 11:17:00,73.8,70.7,29.71,SSW,192,8.0,27.0,90,0.00,,SKC,0.00,VWS V14.01,2013-01-30 17:17:00,
2013-01-30 11:22:00,74.0,70.9,29.71,SW,221,20.0,27.0,90,0.00,,SKC,0.00,VWS V14.01,2013-01-30 17:22:00,
2013-01-30 11:27:00,74.0,70.9,29.71,SW,216,13.0,36.0,90,0.00,,SKC,0.00,VWS V14.01,2013-01-30 17:27:00,
2013-01-30 11:32:00,74.3,71.2,29.70,SSW,192,11.0,26.0,90,0.00,,SKC,0.00,VWS V14.01,2013-01-30 17:32:00,
2013-01-30 11:37:00,74.6,71.2,29.70,South,169,20.0,35.0,89,0.00,,SKC,0.00,VWS V14.01,2013-01-30 17:37:00,
2013-01-30 11:42:00,74.8,71.3,29.70,SSE,161,12.0,35.0,89,0.00,,SKC,0.00,VWS V14.01,2013-01-30 17:42:00,
2013-01-30 11:47:00,74.4,70.9,29.69,South,188,19.0,35.0,89,0.00,,SKC,0.00,VWS V14.01,2013-01-30 17:47:00,
2013-01-30 11:52:00,73.8,70.4,29.69,SW,233,9.0,35.0,89,0.00,,SKC,0.00,VWS V14.01,2013-01-30 17:52:00,
2013-01-30 11:57:00,73.6,70.5,29.69,SSE,157,10.0,35.0,90,0.00,,SKC,0.00,VWS V14.01,2013-01-30 17:57:00,
2013-01-30 12:02:00,73.7,70.6,29.69,South,186,11.0,26.0,90,0.00,,SKC,0.00,VWS V14.01,2013-01-30 18:02:00,
2013-01-30 12:07:00,73.9,70.8,29.68,SW,216,13.0,26.0,90,0.00,,SKC,0.00,VWS V14.01,2013-01-30 18:07:00,
2013-01-30 12:12:00,73.8,70.4,29.70,West,272,15.0,26.0,89,0.00,,SKC,0.00,VWS V14.01,2013-01-30 18:12:00,
2013-01-30 12:17:00,72.1,66.7,29.70,NW,311,18.0,26.0,83,0.00,,SKC,0.00,VWS V14.01,2013-01-30 18:17:00,
2013-01-30 12:22:00,68.8,64.1,29.71,WNW,296,6.0,26.0,85,0.05,,SKC,0.05,VWS V14.01,2013-01-30 18:22:00,
2013-01-30 12:27:00,66.5,63.2,29.71,WSW,257,4.0,26.0,89,0.11,,SKC,0.11,VWS V14.01,2013-01-30 18:27:00,
2013-01-30 12:32:00,64.9,62.2,29.71,WNW,293,7.0,12.0,91,0.12,,SKC,0.12,VWS V14.01,2013-01-30 18:32:00,
2013-01-30 12:37:00,63.8,61.4,29.71,West,273,11.0,16.0,92,0.12,,SKC,0.12,VWS V14.01,2013-01-30 18:37:00,
2013-01-30 12:42:00,63.2,60.8,29.71,WNW,285,4.0,18.0,92,0.13,,SKC,0.13,VWS V14.01,2013-01-30 18:42:00,
2013-01-30 12:47:00,62.7,60.3,29.71,West,271,12.0,20.0,92,0.13,,SKC,0.13,VWS V14.01,2013-01-30 18:47:00,
2013-01-30 12:52:00,62.2,59.8,29.71,NW,311,13.0,20.0,92,0.13,,SKC,0.13,VWS V14.01,2013-01-30 18:52:00,
2013-01-30 12:57:00,61.7,59.4,29.71,WNW,285,3.0,20.0,92,0.13,,SKC,0.13,VWS V14.01,2013-01-30 18:57:00,
2013-01-30 13:02:00,60.9,58.6,29.72,WNW,292,12.0,18.0,92,0.14,,SKC,0.14,VWS V14.01,2013-01-30 19:02:00,
2013-01-30 13:07:00,59.8,57.5,29.73,WSW,241,8.0,18.0,92,0.17,,SKC,0.17,VWS V14.01,2013-01-30 19:07:00,
2013-01-30 13:12:00,58.9,56.6,29.73,NW,306,4.0,18.0,92,0.18,,SKC,0.18,VWS V14.01,2013-01-30 19:12:00,
2013-01-30 13:17:00,58.1,56.1,29.73,WNW,291,6.0,18.0,93,0.19,,SKC,0.19,VWS V14.01,2013-01-30 19:17:00,
2013-01-30 13:22:00,57.3,55.3,29.74,SW,229,11.0,18.0,93,0.21,,SKC,0.21,VWS V14.01,2013-01-30 19:22:00,
2013-01-30 13:27:00,56.6,54.6,29.74,West,274,19.0,23.0,93,0.24,,SKC,0.24,VWS V14.01,2013-01-30 19:27:00,
2013-01-30 13:32:00,55.9,53.9,29.75,WNW,296,5.0,12.0,93,0.14,,SKC,0.26,VWS V14.01,2013-01-30 19:32:00,
2013-01-30 13:37:00,55.1,53.1,29.75,WNW,293,7.0,18.0,93,0.15,,SKC,0.27,VWS V14.01,2013-01-30 19:37:00,
2013-01-30 13:42:00,54.2,52.2,29.77,WNW,286,16.0,18.0,93,0.18,,SKC,0.30,VWS V14.01,2013-01-30 19:42:00,
2013-01-30 13:47:00,53.6,51.6,29.77,NW,311,6.0,18.0,93,0.23,,SKC,0.35,VWS V14.01,2013-01-30 19:47:00,
2013-01-30 13:52:00,53.3,51.3,29.75,NW,312,9.0,18.0,93,0.26,,SKC,0.38,VWS V14.01,2013-01-30 19:52:00,
2013-01-30 13:57:00,53.1,51.1,29.76,West,270,5.0,18.0,93,0.30,,SKC,0.42,VWS V14.01,2013-01-30 19:57:00,
2013-01-30 14:02:00,53.0,50.7,29.76,WNW,296,5.0,11.0,92,0.32,,SKC,0.46,VWS V14.01,2013-01-30 20:02:00,
2013-01-30 14:07:00,53.0,50.7,29.76,WNW,294,1.0,11.0,92,0.34,,SKC,0.48,VWS V14.01,2013-01-30 20:07:00,
2013-01-30 14:12:00,53.2,50.7,29.76,WNW,284,6.0,11.0,91,0.34,,SKC,0.48,VWS V14.01,2013-01-30 20:12:00,
2013-01-30 14:17:00,53.3,50.7,29.77,WNW,286,5.0,12.0,91,0.34,,SKC,0.48,VWS V14.01,2013-01-30 20:17:00,
2013-01-30 14:22:00,53.3,50.7,29.78,West,276,5.0,12.0,91,0.34,,SKC,0.48,VWS V14.01,2013-01-30 20:22:00,
2013-01-30 14:27:00,53.3,50.7,29.78,West,271,9.0,15.0,91,0.34,,SKC,0.48,VWS V14.01,2013-01-30 20:27:00,
2013-01-30 14:32:00,53.1,50.8,29.79,West,281,7.0,9.0,92,0.24,,SKC,0.49,VWS V14.01,2013-01-30 20:32:00,
2013-01-30 14:37:00,52.9,50.6,29.80,West,270,2.0,10.0,92,0.24,,SKC,0.49,VWS V14.01,2013-01-30 20:37:00,
2013-01-30 14:42:00,53.0,50.7,29.79,WNW,285,2.0,10.0,92,0.24,,SKC,0.49,VWS V14.01,2013-01-30 20:42:00,
2013-01-30 14:47:00,53.0,50.7,29.79,WNW,290,2.0,10.0,92,0.24,,SKC,0.49,VWS V14.01,2013-01-30 20:47:00,
2013-01-30 14:52:00,52.8,50.5,29.77,West,269,6.0,12.0,92,0.24,,SKC,0.49,VWS V14.01,2013-01-30 20:52:00,
2013-01-30 14:57:00,52.5,50.5,29.78,SW,236,0.0,12.0,93,0.24,,SKC,0.49,VWS V14.01,2013-01-30 20:57:00,
2013-01-30 15:02:00,52.4,50.4,29.79,WSW,242,0.0,4.0,93,0.06,,SKC,0.50,VWS V14.01,2013-01-30 21:02:00,
2013-01-30 15:07:00,52.3,50.0,29.78,WSW,255,0.0,9.0,92,0.06,,SKC,0.50,VWS V14.01,2013-01-30 21:07:00,
2013-01-30 15:12:00,52.2,50.0,29.76,NW,317,0.0,9.0,92,0.06,,SKC,0.50,VWS V14.01,2013-01-30 21:12:00,
2013-01-30 15:17:00,52.2,50.0,29.77,NW,317,0.0,9.0,92,0.06,,SKC,0.50,VWS V14.01,2013-01-30 21:17:00,
2013-01-30 15:22:00,52.1,49.8,29.76,NW,317,0.0,9.0,92,0.06,,SKC,0.50,VWS V14.01,2013-01-30 21:22:00,
2013-01-30 15:27:00,52.2,50.0,29.78,West,259,1.0,9.0,92,0.07,,SKC,0.51,VWS V14.01,2013-01-30 21:27:00,
2013-01-30 15:32:00,52.3,49.8,29.79,WSW,244,1.0,2.0,91,0.03,,SKC,0.52,VWS V14.01,2013-01-30 21:32:00,
2013-01-30 15:37:00,52.3,49.8,29.78,WSW,244,1.0,5.0,91,0.03,,SKC,0.52,VWS V14.01,2013-01-30 21:37:00,
2013-01-30 15:42:00,52.4,49.8,29.77,WSW,244,1.0,5.0,91,0.04,,SKC,0.53,VWS V14.01,2013-01-30 21:42:00,
2013-01-30 15:47:00,52.5,50.0,29.79,WSW,240,1.0,5.0,91,0.04,,SKC,0.53,VWS V14.01,2013-01-30 21:47:00,
2013-01-30 15:52:00,52.7,49.8,29.78,WSW,240,0.0,5.0,90,0.04,,SKC,0.53,VWS V14.01,2013-01-30 21:52:00,
2013-01-30 15:57:00,52.8,50.0,29.79,WSW,240,0.0,5.0,90,0.04,,SKC,0.53,VWS V14.01,2013-01-30 21:57:00,
2013-01-30 16:02:00,52.9,50.0,29.79,WSW,240,0.0,3.0,90,0.04,,SKC,0.53,VWS V14.01,2013-01-30 22:02:00,
2013-01-30 16:07:00,52.9,50.0,29.79,WSW,240,0.0,4.0,90,0.04,,SKC,0.53,VWS V14.01,2013-01-30 22:07:00,
2013-01-30 16:12:00,53.0,50.2,29.78,WSW,240,0.0,5.0,90,0.04,,SKC,0.53,VWS V14.01,2013-01-30 22:12:00,
2013-01-30 16:17:00,53.1,50.2,29.80,West,270,0.0,5.0,90,0.04,,SKC,0.53,VWS V14.01,2013-01-30 22:17:00,
2013-01-30 16:22:00,53.2,50.3,29.81,WSW,241,1.0,7.0,90,0.04,,SKC,0.53,VWS V14.01,2013-01-30 22:22:00,
2013-01-30 16:27:00,53.5,50.6,29.80,WSW,254,2.0,7.0,90,0.04,,SKC,0.53,VWS V14.01,2013-01-30 22:27:00,
2013-01-30 16:32:00,53.6,51.0,29.82,West,271,0.0,4.0,91,0.02,,SKC,0.53,VWS V14.01,2013-01-30 22:32:00,
2013-01-30 16:37:00,53.8,51.2,29.80,SW,222,2.0,11.0,91,0.02,,SKC,0.53,VWS V14.01,2013-01-30 22:37:00,
2013-01-30 16:42:00,54.1,52.1,29.83,SW,222,8.0,12.0,93,0.02,,SKC,0.53,VWS V14.01,2013-01-30 22:42:00,
2013-01-30 16:47:00,54.3,52.3,29.81,WSW,253,3.0,12.0,93,0.02,,SKC,0.53,VWS V14.01,2013-01-30 22:47:00,
2013-01-30 16:52:00,54.4,52.4,29.81,WNW,282,10.0,13.0,93,0.02,,SKC,0.53,VWS V14.01,2013-01-30 22:52:00,
2013-01-30 16:57:00,54.5,52.5,29.81,West,269,6.0,13.0,93,0.02,,SKC,0.53,VWS V14.01,2013-01-30 22:57:00,
2013-01-30 17:02:00,54.5,52.2,29.83,SW,223,6.0,9.0,92,0.00,,SKC,0.53,VWS V14.01,2013-01-30 23:02:00,
2013-01-30 17:07:00,54.6,52.3,29.81,West,271,12.0,14.0,92,0.00,,SKC,0.53,VWS V14.01,2013-01-30 23:07:00,
2013-01-30 17:12:00,54.9,52.3,29.81,WSW,240,5.0,14.0,91,0.00,,SKC,0.53,VWS V14.01,2013-01-30 23:12:00,
2013-01-30 17:17:00,55.0,52.4,29.81,WSW,244,1.0,14.0,91,0.00,,SKC,0.53,VWS V14.01,2013-01-30 23:17:00,
2013-01-30 17:22:00,55.1,52.2,29.81,WSW,250,6.0,14.0,90,0.00,,SKC,0.53,VWS V14.01,2013-01-30 23:22:00,
2013-01-30 17:27:00,55.2,52.0,29.82,West,275,9.0,14.0,89,0.00,,SKC,0.53,VWS V14.01,2013-01-30 23:27:00,
2013-01-30 17:32:00,55.3,52.1,29.82,NW,304,9.0,9.0,89,0.00,,SKC,0.53,VWS V14.01,2013-01-30 23:32:00,
2013-01-30 17:37:00,55.4,51.9,29.82,WSW,254,3.0,14.0,88,0.00,,SKC,0.53,VWS V14.01,2013-01-30 23:37:00,
2013-01-30 17:42:00,55.4,51.9,29.83,SW,225,5.0,14.0,88,0.00,,SKC,0.53,VWS V14.01,2013-01-30 23:42:00,
2013-01-30 17:47:00,55.5,51.7,29.83,WNW,296,13.0,16.0,87,0.00,,SKC,0.53,VWS V14.01,2013-01-30 23:47:00,
2013-01-30 17:52:00,55.6,51.8,29.83,SW,225,5.0,16.0,87,0.00,,SKC,0.53,VWS V14.01,2013-01-30 23:52:00,
2013-01-30 17:57:00,55.6,51.2,29.84,WNW,287,2.0,16.0,85,0.00,,SKC,0.53,VWS V14.01,2013-01-30 23:57:00,
2013-01-30 18:02:00,55.6,50.5,29.84,WNW,289,10.0,14.0,83,0.00,,SKC,0.53,VWS V14.01,2013-01-31 00:02:00,
2013-01-30 18:07:00,55.7,50.0,29.84,WNW,286,8.0,14.0,81,0.00,,SKC,0.53,VWS V14.01,2013-01-31 00:07:00,
2013-01-30 18:12:00,55.8,49.7,29.85,WNW,298,6.0,19.0,80,0.00,,SKC,0.53,VWS V14.01,2013-01-31 00:12:00,
2013-01-30 18:17:00,55.8,49.0,29.86,WNW,286,2.0,19.0,78,0.00,,SKC,0.53,VWS V14.01,2013-01-31 00:17:00,
2013-01-30 18:22:00,55.8,48.7,29.86,WNW,294,6.0,19.0,77,0.00,,SKC,0.53,VWS V14.01,2013-01-31 00:22:00,
2013-01-30 18:27:00,55.8,49.0,29.86,WNW,287,0.0,19.0,78,0.00,,SKC,0.53,VWS V14.01,2013-01-31 00:27:00,
2013-01-30 18:32:00,55.6,48.5,29.87,WNW,294,8.0,19.0,77,0.00,,SKC,0.53,VWS V14.01,2013-01-31 00:32:00,
2013-01-30 18:37:00,55.5,48.4,29.88,WNW,292,10.0,19.0,77,0.00,,SKC,0.53,VWS V14.01,2013-01-31 00:37:00,
2013-01-30 18:42:00,55.5,48.1,29.88,West,271,1.0,19.0,76,0.00,,SKC,0.53,VWS V14.01,2013-01-31 00:42:00,
2013-01-30 18:47:00,55.5,48.4,29.89,WNW,282,5.0,19.0,77,0.00,,SKC,0.53,VWS V14.01,2013-01-31 00:47:00,
2013-01-30 18:52:00,55.4,48.0,29.89,West,265,12.0,19.0,76,0.00,,SKC,0.53,VWS V14.01,2013-01-31 00:52:00,
2013-01-30 18:57:00,55.3,47.9,29.90,WNW,303,1.0,19.0,76,0.00,,SKC,0.53,VWS V14.01,2013-01-31 00:57:00,
2013-01-30 19:02:00,55.2,47.4,29.89,West,277,6.0,7.0,75,0.00,,SKC,0.53,VWS V14.01,2013-01-31 01:02:00,
2013-01-30 19:07:00,55.1,46.6,29.90,NW,312,8.0,18.0,73,0.00,,SKC,0.53,VWS V14.01,2013-01-31 01:07:00,
2013-01-30 19:12:00,55.2,46.7,29.90,West,267,4.0,18.0,73,0.00,,SKC,0.53,VWS V14.01,2013-01-31 01:12:00,
2013-01-30 19:17:00,55.0,46.5,29.90,WNW,298,2.0,18.0,73,0.00,,SKC,0.53,VWS V14.01,2013-01-31 01:17:00,
2013-01-30 19:22:00,54.8,46.3,29.91,WNW,296,6.0,18.0,73,0.00,,SKC,0.53,VWS V14.01,2013-01-31 01:22:00,
2013-01-30 19:27:00,54.5,45.7,29.91,West,261,8.0,18.0,72,0.00,,SKC,0.53,VWS V14.01,2013-01-31 01:27:00,
2013-01-30 19:32:00,54.3,45.5,29.91,West,267,9.0,13.0,72,0.00,,SKC,0.53,VWS V14.01,2013-01-31 01:32:00,
2013-01-30 19:37:00,54.1,45.3,29.91,WNW,284,7.0,22.0,72,0.00,,SKC,0.53,VWS V14.01,2013-01-31 01:37:00,
2013-01-30 19:42:00,53.9,45.1,29.91,WNW,292,6.0,22.0,72,0.00,,SKC,0.53,VWS V14.01,2013-01-31 01:42:00,
2013-01-30 19:47:00,53.8,45.0,29.92,WNW,288,8.0,22.0,72,0.00,,SKC,0.53,VWS V14.01,2013-01-31 01:47:00,
2013-01-30 19:52:00,53.7,44.9,29.93,WNW,302,5.0,22.0,72,0.00,,SKC,0.53,VWS V14.01,2013-01-31 01:52:00,
2013-01-30 19:57:00,53.6,44.8,29.93,NW,313,5.0,22.0,72,0.00,,SKC,0.53,VWS V14.01,2013-01-31 01:57:00,
2013-01-30 20:02:00,53.5,45.1,29.94,West,264,7.0,9.0,73,0.00,,SKC,0.53,VWS V14.01,2013-01-31 02:02:00,
2013-01-30 20:07:00,53.2,44.8,29.94,WNW,294,11.0,13.0,73,0.00,,SKC,0.53,VWS V14.01,2013-01-31 02:07:00,
2013-01-30 20:12:00,53.0,44.6,29.95,NW,320,4.0,19.0,73,0.00,,SKC,0.53,VWS V14.01,2013-01-31 02:12:00,
2013-01-30 20:17:00,52.9,44.5,29.95,WNW,291,6.0,19.0,73,0.00,,SKC,0.53,VWS V14.01,2013-01-31 02:17:00,
2013-01-30 20:22:00,52.9,44.1,29.96,WNW,300,8.0,19.0,72,0.00,,SKC,0.53,VWS V14.01,2013-01-31 02:22:00,
2013-01-30 20:27:00,52.8,44.0,29.96,WNW,294,11.0,19.0,72,0.00,,SKC,0.53,VWS V14.01,2013-01-31 02:27:00,
2013-01-30 20:32:00,52.5,44.1,29.97,West,275,4.0,7.0,73,0.00,,SKC,0.53,VWS V14.01,2013-01-31 02:32:00,
2013-01-30 20:37:00,52.1,44.1,29.97,WNW,301,9.0,23.0,74,0.00,,SKC,0.53,VWS V14.01,2013-01-31 02:37:00,
2013-01-30 20:42:00,52.0,43.6,29.97,West,277,7.0,23.0,73,0.00,,SKC,0.53,VWS V14.01,2013-01-31 02:42:00,
2013-01-30 20:47:00,51.9,42.8,29.98,WNW,287,11.0,23.0,71,0.00,,SKC,0.53,VWS V14.01,2013-01-31 02:47:00,
2013-01-30 20:52:00,52.0,43.3,29.98,NNW,333,5.0,23.0,72,0.00,,SKC,0.53,VWS V14.01,2013-01-31 02:52:00,
2013-01-30 20:57:00,51.8,43.1,29.99,West,281,3.0,23.0,72,0.00,,SKC,0.53,VWS V14.01,2013-01-31 02:57:00,
2013-01-30 21:02:00,51.7,43.0,29.99,West,280,4.0,14.0,72,0.00,,SKC,0.53,VWS V14.01,2013-01-31 03:02:00,
2013-01-30 21:07:00,51.5,42.4,29.99,WNW,295,15.0,27.0,71,0.00,,SKC,0.53,VWS V14.01,2013-01-31 03:07:00,
2013-01-30 21:12:00,51.4,42.7,30.00,NW,318,11.0,27.0,72,0.00,,SKC,0.53,VWS V14.01,2013-01-31 03:12:00,
2013-01-30 21:17:00,51.3,42.2,30.00,NW,304,7.0,27.0,71,0.00,,SKC,0.53,VWS V14.01,2013-01-31 03:17:00,
2013-01-30 21:22:00,51.0,42.3,30.01,NNW,341,6.0,27.0,72,0.00,,SKC,0.53,VWS V14.01,2013-01-31 03:22:00,
2013-01-30 21:27:00,50.7,40.9,30.01,NNW,340,9.0,27.0,69,0.00,,SKC,0.53,VWS V14.01,2013-01-31 03:27:00,
2013-01-30 21:32:00,50.4,40.6,30.01,North,355,8.0,18.0,69,0.00,,SKC,0.53,VWS V14.01,2013-01-31 03:32:00,
2013-01-30 21:37:00,50.2,40.4,30.02,WNW,296,6.0,22.0,69,0.00,,SKC,0.53,VWS V14.01,2013-01-31 03:37:00,
2013-01-30 21:42:00,50.0,40.2,30.02,NNW,340,4.0,22.0,69,0.00,,SKC,0.53,VWS V14.01,2013-01-31 03:42:00,
2013-01-30 21:47:00,49.9,40.2,30.03,WNW,293,19.0,22.0,69,0.00,,SKC,0.53,VWS V14.01,2013-01-31 03:47:00,
2013-01-30 21:52:00,49.7,40.3,30.03,WNW,297,12.0,23.0,70,0.00,,SKC,0.53,VWS V14.01,2013-01-31 03:52:00,
2013-01-30 21:57:00,49.5,39.4,30.03,WNW,301,10.0,25.0,68,0.00,,SKC,0.53,VWS V14.01,2013-01-31 03:57:00,
2013-01-30 22:02:00,49.3,39.6,30.04,NNW,329,6.0,14.0,69,0.00,,SKC,0.53,VWS V14.01,2013-01-31 04:02:00,
2013-01-30 22:07:00,49.0,38.5,30.04,NW,314,7.0,22.0,67,0.00,,SKC,0.53,VWS V14.01,2013-01-31 04:07:00,
2013-01-30 22:12:00,48.6,38.9,30.04,WNW,289,5.0,23.0,69,0.00,,SKC,0.53,VWS V14.01,2013-01-31 04:12:00,
2013-01-30 22:17:00,48.2,38.5,30.05,NW,315,4.0,23.0,69,0.00,,SKC,0.53,VWS V14.01,2013-01-31 04:17:00,
2013-01-30 22:22:00,48.0,38.7,30.06,NW,317,15.0,23.0,70,0.00,,SKC,0.53,VWS V14.01,2013-01-31 04:22:00,
2013-01-30 22:27:00,47.8,38.5,30.06,WNW,285,11.0,24.0,70,0.00,,SKC,0.53,VWS V14.01,2013-01-31 04:27:00,
2013-01-30 22:32:00,47.5,37.1,30.06,WNW,303,12.0,16.0,67,0.00,,SKC,0.53,VWS V14.01,2013-01-31 04:32:00,
2013-01-30 22:37:00,47.2,36.8,30.06,WNW,299,9.0,25.0,67,0.00,,SKC,0.53,VWS V14.01,2013-01-31 04:37:00,
2013-01-30 22:42:00,46.9,36.9,30.07,NNW,346,14.0,25.0,68,0.00,,SKC,0.53,VWS V14.01,2013-01-31 04:42:00,
2013-01-30 22:47:00,46.7,37.1,30.07,WNW,296,9.0,25.0,69,0.00,,SKC,0.53,VWS V14.01,2013-01-31 04:47:00,
2013-01-30 22:52:00,46.5,36.5,30.08,NW,322,13.0,25.0,68,0.00,,SKC,0.53,VWS V14.01,2013-01-31 04:52:00,
2013-01-30 22:57:00,46.3,35.6,30.08,WNW,286,10.0,25.0,66,0.00,,SKC,0.53,VWS V14.01,2013-01-31 04:57:00,
2013-01-30 23:00:00,46.2,35.5,30.08,NNW,336,14.0,25.0,66,0.00,,SKC,0.53,VWS V14.01,2013-01-31 05:00:00,
2013-01-30 23:01:00,46.1,35.0,30.08,WNW,301,27.0,29.0,65,0.00,,SKC,0.53,VWS V14.01,2013-01-31 05:01:00,
2013-01-30 23:02:00,46.1,34.6,30.08,NNW,335,10.0,29.0,64,0.00,,SKC,0.53,VWS V14.01,2013-01-31 05:02:00,
2013-01-30 23:07:00,46.1,34.6,30.09,NW,313,10.0,29.0,64,0.00,,SKC,0.53,VWS V14.01,2013-01-31 05:07:00,
2013-01-30 23:12:00,46.0,34.5,30.09,NW,325,7.0,29.0,64,0.00,,SKC,0.53,VWS V14.01,2013-01-31 05:12:00,
2013-01-30 23:17:00,45.8,34.3,30.09,WNW,294,12.0,29.0,64,0.00,,SKC,0.53,VWS V14.01,2013-01-31 05:17:00,
2013-01-30 23:22:00,45.7,34.2,30.09,WNW,292,8.0,29.0,64,0.00,,SKC,0.53,VWS V14.01,2013-01-31 05:22:00,
2013-01-30 23:27:00,45.7,34.6,30.09,West,273,19.0,29.0,65,0.00,,SKC,0.53,VWS V14.01,2013-01-31 05:27:00,
2013-01-30 23:32:00,45.6,34.5,30.09,NW,311,5.0,21.0,65,0.00,,SKC,0.53,VWS V14.01,2013-01-31 05:32:00,
2013-01-30 23:37:00,45.5,34.4,30.10,North,350,12.0,21.0,65,0.00,,SKC,0.53,VWS V14.01,2013-01-31 05:37:00,
2013-01-30 23:42:00,45.3,34.2,30.10,West,265,14.0,21.0,65,0.00,,SKC,0.53,VWS V14.01,2013-01-31 05:42:00,
2013-01-30 23:47:00,45.2,33.8,30.10,NW,306,9.0,23.0,64,0.00,,SKC,0.53,VWS V14.01,2013-01-31 05:47:00,
2013-01-30 23:52:00,45.3,33.5,30.11,West,277,8.0,23.0,63,0.00,,SKC,0.53,VWS V14.01,2013-01-31 05:52:00,
2013-01-30 23:57:00,45.3,33.5,30.10,WNW,299,19.0,23.0,63,0.00,,SKC,0.53,VWS V14.01,2013-01-31 05:57:00,